Home   Weather   Celle   Past weeks

Flag for Germany Past Weather in Celle, Lower Saxony, Germany — Yesterday and Last 2 Weeks

Now
52 °F

Cool.


Feels Like: 51 °F
Forecast: 50 / 67 °F
Wind: 3 mph from Northeast

Location: Celle Airport

Current Time: Sep 25, 2016 at 4:07:56 AM

Latest Report: Sep 25, 2016 at 3:20 AM


Visibility: 3 mi

Pressure: 30.18 "Hg

Humidity: 88%

Dew Point: 48 °F

Location of CelleLocation

Past Weather in Celle — Graph

°F

Celle Temperature Yesterday

Maximum temperature yesterday: 72 °F (at 4:20 PM)
Minimum temperature yesterday: 43 °F (at 6:20 AM)
Average temperature yesterday: 56 °F

High & Low Weather Summary for the Past Weeks

 TemperatureHumidityPressure
High88 °F (Sep 12, 4:20 PM)100% (Sep 11, 4:20 AM)30.30 "Hg (Sep 11, 4:20 AM)
Low43 °F (Sep 24, 6:20 AM)27% (Sep 13, 5:20 PM)29.89 "Hg (Sep 15, 5:20 PM)
Average63 °F71%30.06 "Hg
* Reported Sep 10 2:20 AM — Sep 25 2:20 AM, Celle, Weather by CustomWeather, © 2016

Note: Actual official high and low records may vary slightly from our data, if they occured in-between our weather recording intervals... More about our weather records

Advertising

Celle Weather History for the Previous 24 Hours

Scroll right to see more
 ConditionsComfort  
Time TempWeatherWind HumidityBarometerVisibility
2:20 AM
Sun, Sep 25
52 °FCool.3 mph88%30.18 "Hg5 mi
1:20 AM54 °FCool.3 mph82%30.18 "HgN/A
12:20 AM55 °FCool.3 mph82%30.18 "HgN/A
11:20 PM
Sat, Sep 24
55 °FCool.2 mph82%30.21 "HgN/A
10:20 PM57 °FCool.3 mph77%30.21 "HgN/A
9:20 PM59 °FCool.3 mph77%30.21 "HgN/A
8:20 PM59 °FCool.2 mph77%30.21 "HgN/A
7:20 PM63 °FMild.1 mph68%30.21 "HgN/A
6:20 PM70 °FMild.2 mph50%30.21 "HgN/A
5:20 PM70 °FPartly sunny.3 mph46%30.21 "HgN/A
4:20 PM72 °FPartly sunny.3 mph44%30.21 "HgN/A
3:20 PM70 °FScattered clouds.8 mph43%30.24 "HgN/A
2:20 PM70 °FBroken clouds.5 mph43%30.27 "HgN/A
1:20 PM68 °FPartly sunny.6 mph49%30.27 "HgN/A
12:20 PM66 °FPartly sunny.5 mph56%30.27 "HgN/A
11:20 AM63 °FPartly sunny.3 mph64%30.30 "HgN/A
10:20 AM59 °FPartly sunny.1 mph72%30.30 "HgN/A
9:20 AM52 °FPartly sunny.1 mph88%30.30 "HgN/A
8:45 AM48 °FPartly sunny.1 mph87%30.30 "Hg5 mi
8:20 AM45 °FFog.No wind87%30.30 "Hg3 mi
7:50 AM43 °FFog.No wind93%30.30 "Hg1 mi
7:20 AM43 °FPartly sunny.No wind100%30.27 "Hg1 mi
6:20 AM43 °FFog.No wind100%30.27 "Hg1 mi
5:20 AM45 °FFog.No wind100%30.27 "Hg1 mi
4:20 AM46 °FPassing clouds.No wind93%30.27 "HgN/A
Weather by CustomWeather, © 2016

See weather overviewHow to use our weather pages